20031225,1
20031226,1
20031229,1
20031230,1
20040105,1
20040106,1
20040107,1
20040108,1
20040109,1
20040113,1
20040114,1
20040115,1
20040116,1
20040119,1
20040120,5
20040121,22
20040122,30
20040123,55
20040126,67
20040127,86
20040128,105
20040129,148
20040130,166
20040202,190
20040203,208
20040204,217
20040205,243
20040206,252
20040209,270
20040210,276
20040212,292
20040213,302
20040216,316
20040217,318
20040218,325
20040219,347
20040220,365
20040223,378
20040224,387
20040225,397
20040226,434
20040227,443
20040301,480
20040302,509
20040303,533
20040304,556
20040305,559
20040308,611
20040309,629
20040310,633
20040311,648
20040312,676
20040315,724
20040316,740
20040317,774
20040318,803
20040319,848
20040322,894
20040323,898
20040324,924
20040325,937
20040326,945
20040329,945
20040330,955
20040331,968
20040401,958
20040402,945
20040405,891
20040406,892
20040407,923
20040408,935
20040409,956
20040412,973
20040413,986
20040414,999
20040415,1009
20040416,1001
20040419,1005
20040420,1014
20040421,1017
20040422,1020
20040423,1035
20040426,1037
20040427,1047
20040428,1083
20040430,1091
20040506,1120
20040507,1121
20040510,1099
20040511,1101
20040512,1127
20040513,1140
20040514,1146
20040517,1145
20040518,1158
20040519,1189
20040520,1201
20040521,1235
20040524,1275
20040525,1305
20040526,1332
20040527,1345
20040528,1357
20040531,1416
20040601,1428
20040602,1433
20040603,1449
20040604,1448
20040607,1485
20040608,1503
20040609,1520
20040610,1545
20040611,1544
20040614,1563
20040615,1575
20040616,1581
20040617,1605
20040618,1606
20040621,1614
20040622,1627
20040623,1637
20040624,1644
20040625,1644
20040628,1657
20040629,1667
20040630,1667
20040701,1678
20040702,1702
20040705,1707
20040706,1705
20040707,1717
20040708,1729
20040709,1743
20040712,1755
20040713,1754
20040714,1765
20040715,1770
20040716,1784
20040720,1794
20040721,1805
20040722,1814
20040723,1841
20040726,1861
20040727,1878
20040728,1892
20040729,1914
20040730,1915
20040802,1936
20040803,1987
20040804,2051
20040805,2101
20040806,2133
20040809,2154
20040810,2193
20040811,2217
20040812,2270
20040813,2301
20040816,2321
20040817,2346
20040818,2348
20040819,2372
20040820,2441
20040823,2480
20040824,2508
20040825,2540
20040826,2565
20040827,2605
20040830,2649
20040831,2677
20040901,2767
20040902,2795
20040903,2779
20040906,2795
20040907,2819
20040908,2844
20040909,2877
20040910,2893
20040913,2956
20040914,2975
20040915,3029
20040916,3069
20040917,3113
20040921,3184
20040922,3257
20040924,3347
20040927,3399
20040928,3514
20040929,3609
20040930,3707
20041001,3772
20041004,3818
20041005,3808
20041006,3835
20041007,3854
20041008,3891
20041012,3919
20041013,3951
20041014,3982
20041015,3995
20041018,4022
20041019,4051
20041020,4085
20041021,4131
20041022,4174
20041025,4184
20041026,4215
20041027,4239
20041028,4266
20041029,4300
20041101,4350
20041102,4345
20041104,4361
20041105,4377
20041108,4458
20041109,4463
20041110,4444
20041111,4452
20041112,4449
20041115,4425
20041116,4420
20041117,4436
20041118,4454
20041119,4485
20041122,4486
20041124,4584
20041125,4606
20041126,4610
20041129,4622
20041130,4651
20041201,4651
20041202,4657
20041203,4651
20041206,4647
20041207,4670
20041208,4676
20041209,4745
20041210,4727
20041213,4704
20041214,4730
20041215,4696
20041216,4782
20041217,4829
20041220,4865
20041221,4908
20041222,4946
20041224,4973
20041227,4977
20041228,5086
20041229,5141
20041230,5208
20050104,5221
20050105,5230
20050106,5214
20050107,5219
20050111,5217
20050112,5182
20050113,5147
20050114,5144
20050117,5131
20050118,5166
20050119,5196
20050120,5211
20050121,5272
20050124,5297
20050125,5322
20050126,5354
20050127,5375
20050128,5393
20050131,5386
20050201,5419
20050202,5420
20050203,5418
20050204,5413
20050207,5417
20050208,5409
20050209,5378
20050210,5364
20050214,5318
20050215,5316
20050216,5301
20050217,5368
20050218,5419
20050221,5436
20050222,5448
20050223,5459
20050224,5448
20050225,5452
20050228,5525
20050301,5531
20050302,5530
20050303,5520
20050304,5507
20050307,5521
20050308,5524
20050309,5544
20050310,5582
20050311,5588
20050314,5576
20050315,5591
20050316,5593
20050317,5611
20050318,5626
20050322,5652
20050323,5680
20050324,5713
20050325,5707
20050328,5771
20050329,5843
20050330,5888
20050331,5769
20050401,5704
20050404,5750
20050405,5772
20050406,5805
20050407,5848
20050408,5866
20050411,5873
20050412,5898
20050413,5880
20050414,5845
20050415,5797
20050418,5748
20050419,5772
20050420,5816
20050421,5834
20050422,5838
20050425,5832
20050426,5846
20050427,5842
20050428,5840
20050502,5871
20050506,5938
20050509,5931
20050510,5931
20050511,5950
20050512,5986
20050513,5977
20050516,5955
20050517,5963
20050518,5967
20050519,6018
20050520,6022
20050523,6044
20050524,6049
20050525,6057
20050526,6073
20050527,6066
20050530,6107
20050531,6143
20050601,6184
20050602,6196
20050603,6242
20050606,6275
20050607,6301
20050608,6306
20050609,6298
20050610,6288
20050613,6287
20050614,6313
20050615,6342
20050616,6366
20050617,6360
20050620,6358
20050621,6407
20050622,6485
20050623,6514
20050624,6535
20050627,6580
20050628,6660
20050629,6672
20050630,6683
20050701,6727
20050704,6753
20050705,6762
20050706,6843
20050707,6904
20050708,6919
20050711,6960
20050712,6937
20050713,6840
20050714,6759
20050715,6751
20050719,6741
20050720,6784
20050721,6813
20050722,6819
20050725,6852
20050726,6892
20050727,6911
20050728,6912
20050729,6883
20050801,6791
20050802,6762
20050803,6760
20050804,6761
20050805,6785
20050808,6717
20050809,6694
20050810,6675
20050811,6655
20050812,6587
20050815,6484
20050816,6641
20050817,6643
20050818,6637
20050819,6591
20050822,6616
20050823,6632
20050824,6717
20050825,6741
20050826,6679
20050829,6738
20050830,6666
20050831,6728
20050901,6747
20050902,6751
20050905,6742
20050906,6667
20050907,6628
20050908,6655
20050909,6623
20050912,6599
20050913,6593
20050914,6559
20050915,6502
20050916,6438
20050920,6439
20050921,6417
20050922,6492
20050926,6669
20050927,6703
20050928,6800
20050929,6880
20050930,6941
20051003,6878
20051004,6774
20051005,6727
20051006,6734
20051007,6771
20051011,6766
20051012,6759
20051013,6749
20051014,6785
20051017,6737
20051018,6710
20051019,6624
20051020,6659
20051021,6700
20051024,6719
20051025,6718
20051026,6720
20051027,6709
20051028,6691
20051031,6680
20051101,6765
20051102,6780
20051104,6791
20051107,6800
20051108,6810
20051109,6774
20051110,6780
20051111,6758
20051114,6776
20051115,6814
20051116,6822
20051117,6829
20051118,6859
20051121,6863
20051122,6882
20051124,6861
20051125,6809
20051128,6860
20051129,6850
20051130,6876
20051201,6824
20051202,6772
20051205,6731
20051206,6673
20051207,6681
20051208,6695
20051209,6707
20051212,6659
20051213,6741
20051214,6721
20051215,6740
20051216,6727
20051219,6677
20051220,6790
20051221,6861
20051222,6916
20051226,6942
20051227,6924
20051228,6951
20051229,6991
20051230,6996
20060104,7031
20060105,7066
20060106,7088
20060110,7094
20060111,7046
20060112,7058
20060113,7077
20060116,7098
20060117,7157
20060118,7006
20060119,7051
20060120,7119
20060123,7080
20060124,7141
20060125,7158
20060126,7171
20060127,7195
20060130,7178
20060131,7138
20060201,7149
20060202,7220
20060203,7172
20060206,7251
20060207,7279
20060208,7313
20060209,7339
20060210,7232
20060213,7178
20060214,7188
20060215,7090
20060216,6958
20060217,6951
20060220,7029
20060221,7158
20060222,7132
20060223,7243
20060224,7296
20060227,7368
20060228,7289
20060301,7046
20060302,7069
20060303,7007
20060306,7048
20060307,7006
20060308,6858
20060309,6912
20060310,6910
20060313,6931
20060314,6947
20060315,6947
20060316,6921
20060317,6944
20060320,6988
20060322,7001
20060323,6984
20060324,6928
20060327,6980
20060328,7111
20060329,7167
20060330,7209
20060331,7168
20060403,7172
20060404,7114
20060405,7150
20060406,7066
20060407,7062
20060410,7142
20060411,7146
20060412,7215
20060413,7242
20060414,7268
20060417,7143
20060418,7155
20060419,7183
20060420,7238
20060421,7176
20060424,7269
20060425,7255
20060426,7309
20060427,7282
20060428,7323
20060501,7425
20060502,7496
20060508,7609
20060509,7589
20060510,7538
20060511,7585
20060512,7625
20060515,7607
20060516,7528
20060517,7569
20060518,7456
20060519,7428
20060522,7444
20060523,7368
20060524,7438
20060525,7467
20060526,7536
20060529,7563
20060530,7555
20060531,7496
20060601,7517
20060602,7504
20060605,7533
20060606,7521
20060607,7523
20060608,7436
20060609,7327
20060612,7396
20060613,7412
20060614,7292
20060615,7275
20060616,7235
20060619,7015
20060620,6757
20060621,7194
20060622,7160
20060623,7154
20060626,7260
20060627,7336
20060628,7275
20060629,7253
20060630,7356
20060703,7410
20060704,7360
20060705,7320
20060706,7353
20060707,7376
20060710,7356
20060711,7244
20060712,7343
20060713,7303
20060714,7279
20060718,7088
20060719,7162
20060720,7255
20060721,7385
20060724,7348
20060725,7414
20060726,7394
20060727,7363
20060728,7364
20060731,7314
20060801,7307
20060802,7360
20060803,7398
20060804,7417
20060807,7387
20060808,7346
20060809,7429
20060810,7425
20060811,7397
20060814,7443
20060815,7428
20060816,7425
20060817,7432
20060818,7490
20060821,7430
20060822,7461
20060823,7488
20060824,7450
20060825,7495
20060828,7496
20060829,7510
20060830,7466
20060831,7524
20060901,7627
20060904,7664
20060905,7713
20060906,7689
20060907,7660
20060908,7741
20060911,7744
20060912,7861
20060913,7921
20060914,7769
20060915,7772
20060919,7673
20060920,7565
20060921,7595
20060922,7573
20060925,7517
20060926,7757
20060927,7771
20060928,7783
20060929,7706
20061002,7773
20061003,7788
20061004,7843
20061005,7881
20061006,7912
20061010,7909
20061011,7958
20061012,7954
20061013,7925
20061016,7927
20061017,7951
20061018,7941
20061019,7923
20061020,8049
20061023,8005
20061024,8065
20061025,7939
20061026,7998
20061027,7984
20061030,7937
20061031,7990
20061101,8032
20061102,8057
20061106,8092
20061107,8085
20061108,8104
20061109,8049
20061110,8009
20061113,8047
20061114,8052
20061115,7998
20061116,7976
20061117,8031
20061120,8069
20061121,8113
20061122,8147
20061124,8238
20061127,8367
20061128,8423
20061129,8421
20061130,8431
20061201,8415
20061204,8558
20061205,8672
20061206,8837
20061207,8721
20061208,8810
20061211,8905
20061212,9021
20061213,9182
20061214,9120
20061215,9140
20061218,8998
20061219,8880
20061220,8891
20061221,8958
20061222,9204
20061225,9223
20061226,9206
20061227,9278
20061228,9470
20061229,9556
20070104,9766
20070105,9755
20070109,9784
20070110,9660
20070111,9633
20070112,9616
20070115,9613
20070116,9681
20070117,10034
20070118,9921
20070119,10084
20070122,10228
20070123,10371
20070124,10258
20070125,10198
20070126,10129
20070129,10360
20070130,10354
20070131,10505
20070201,10741
20070202,10710
20070205,10696
20070206,10656
20070207,10665
20070208,10953
20070209,10929
20070213,10929
20070214,11271
20070215,11160
20070216,10973
20070219,10908
20070220,10969
20070221,11070
20070222,11176
20070223,11483
20070226,11641
20070227,11467
20070228,10998
20070301,10771
20070302,10684
20070305,10296
20070306,10587
20070307,10400
20070308,10467
20070309,10658
20070312,11011
20070313,11136
20070314,10696
20070315,10623
20070316,10566
20070319,10842
20070320,10993
20070322,11014
20070323,11102
20070326,11066
20070327,11143
20070328,11181
20070329,11207
20070330,11525
20070402,11580
20070403,11373
20070404,11394
20070405,11168
20070406,11196
20070409,11417
20070410,11276
20070411,11189
20070412,11087
20070413,10907
20070416,11196
20070417,11235
20070418,11292
20070419,11272
20070420,11135
20070423,11197
20070424,11277
20070425,11403
20070426,11549
20070427,11630
20070501,11662
20070502,11937
20070507,12074
20070508,12053
20070509,12015
20070510,11944
20070511,12004
20070514,11991
20070515,12075
20070516,12067
20070517,12039
20070518,12064
20070521,11979
20070522,11948
20070523,12014
20070524,12012
20070525,11804
20070528,11925
20070529,11894
20070530,11845
20070531,11998
20070601,11845
20070604,11790
20070605,11800
20070606,11593
20070607,11213
20070608,10974
20070611,10711
20070612,10946
20070613,10642
20070614,10596
20070615,10546
20070618,10797
20070619,10763
20070620,10878
20070621,10654
20070622,10434
20070625,10244
20070626,10232
20070627,9886
20070628,10043
20070629,10120
20070702,10284
20070703,10319
20070704,10229
20070705,10126
20070706,10156
20070709,10102
20070710,10100
20070711,9909
20070712,9823
20070713,9936
20070717,9696
20070718,9526
20070719,9310
20070720,9378
20070723,8977
20070724,8917
20070725,8885
20070726,8677
20070727,8374
20070730,8625
20070731,8802
20070801,8750
20070802,8585
20070803,8819
20070806,8776
20070807,8881
20070808,8965
20070809,9278
20070810,8887
20070813,8626
20070814,8669
20070815,8452
20070816,8049
20070817,7499
20070820,7621
20070821,7996
20070822,8190
20070823,8642
20070824,8390
20070827,8662
20070828,8479
20070829,8209
20070830,8378
20070831,8428
20070903,8369
20070904,8327
20070905,8177
20070906,7815
20070907,7778
20070910,7544
20070911,7502
20070912,7893
20070913,7914
20070914,7823
20070918,7391
20070919,7895
20070920,7833
20070921,7785
20070925,7847
20070926,8151
20070927,8540
20070928,8650
20071001,8523
20071002,8579
20071003,8627
20071004,8147
20071005,8365
20071009,8441
20071010,8397
20071011,8460
20071012,8281
20071015,8285
20071016,8035
20071017,7819
20071018,7897
20071019,7788
20071022,7534
20071023,7738
20071024,7753
20071025,7786
20071026,7904
20071029,8099
20071030,8096
20071031,8211
20071101,8249
20071102,7929
20071105,7807
20071106,7793
20071107,7781
20071108,7568
20071109,7516
20071112,7486
20071113,7493
20071114,7702
20071115,7748
20071116,7567
20071119,7633
20071120,7562
20071121,7405
20071122,7396
20071126,7694
20071127,7616
20071128,7623
20071129,7703
20071130,7726
20071203,7778
20071204,7817
20071205,7959
20071206,8192
20071207,8286
20071210,8135
20071211,8099
20071212,8014
20071213,7972
20071214,7677
20071217,7447
20071218,7497
20071219,7558
20071220,7621
20071221,7595
20071225,7750
20071226,7813
20071227,7737
20071228,7693
20080104,7503
20080107,7476
20080108,7415
20080109,7336
20080110,7162
20080111,6913
20080115,6673
20080116,6310
20080117,6442
20080118,6650
20080121,6517
20080122,6037
20080123,6245
20080124,6452
20080125,6620
20080128,6265
20080129,6353
20080130,6394
20080131,6455
20080201,6478
20080204,6661
20080205,6665
20080206,6415
20080207,6477
20080208,6436
20080212,6305
20080213,6281
20080214,6395
20080215,6473
20080218,6467
20080219,6574
20080220,6509
20080221,6559
20080222,6491
20080225,6530
20080226,6508
20080227,6548
20080228,6499
20080229,6422
20080303,6252
20080304,6132
20080305,5913
20080306,5945
20080307,5768
20080310,5816
20080311,5864
20080312,5850
20080313,5740
20080314,5575
20080317,5227
20080318,5447
20080319,5592
20080321,5841
20080324,5877
20080325,5995
20080326,6034
20080327,5908
20080328,5914
20080331,6018
20080401,6085
20080402,6356
20080403,6431
20080404,6368
20080407,6517
20080408,6466
20080409,6237
20080410,6127
20080411,6272
20080414,6087
20080415,6233
20080416,6177
20080417,6345
20080418,6318
20080421,6381
20080422,6377
20080423,6353
20080424,6190
20080425,6191
20080428,6240
20080430,6191
20080501,6296
20080502,6471
20080507,6603
20080508,6665
20080509,6530
20080512,6448
20080513,6504
20080514,6550
20080515,6507
20080516,6506
20080519,6399
20080520,6361
20080521,6243
20080522,6251
20080523,6359
20080526,6304
20080527,6378
20080528,6414
20080529,6538
20080530,6608
20080602,6630
20080603,6510
20080604,6481
20080605,6415
20080606,6401
20080609,6372
20080610,6276
20080611,6248
20080612,6221
20080613,6221
20080616,6274
20080617,6330
20080618,6402
20080619,6311
20080620,6209
20080623,6193
20080624,6300
20080625,6276
20080626,6281
20080627,6157
20080630,6357
20080701,6422
20080702,6205
20080703,6314
20080704,6426
20080707,6508
20080708,6434
20080709,6452
20080710,6385
20080711,6437
20080714,6431
20080715,6318
20080716,6250
20080717,6207
20080718,6192
20080722,6187
20080723,6296
20080724,6355
20080725,6380
20080728,6331
20080729,6331
20080730,6368
20080731,6420
20080801,6382
20080804,6337
20080805,6224
20080806,6385
20080807,6371
20080808,6425
20080811,6466
20080812,6531
20080813,6545
20080814,6371
20080815,6385
20080818,6310
20080819,6264
20080820,6265
20080821,6137
20080822,6075
20080825,6202
20080826,6160
20080827,5990
20080828,5931
20080829,6305
20080901,6333
20080902,6104
20080903,6061
20080904,5868
20080905,5636
20080908,6037
20080909,6078
20080910,6058
20080911,6211
20080912,6407
20080916,5870
20080917,6030
20080918,5807
20080919,6095
20080922,6210
20080924,5965
20080925,5954
20080926,5946
20080929,5868
20080930,5679
20081001,5816
20081002,5590
20081003,5182
20081006,4878
20081007,4979
20081008,4565
20081009,4421
20081010,3940
20081014,4340
20081015,4543
20081016,4155
20081017,4349
20081020,4581
20081021,5038
20081022,4523
20081023,4690
20081024,4409
20081027,4092
20081028,3942
20081029,4349
20081030,4677
20081031,4834
20081104,5174
20081105,5031
20081106,4785
20081107,4777
20081110,4717
20081111,4700
20081112,4680
20081113,4547
20081114,4576
20081117,4520
20081118,4367
20081119,4234
20081120,4130
20081121,4256
20081125,4432
20081126,4548
20081127,4640
20081128,4945
20081201,4642
20081202,4560
20081203,4549
20081204,4508
20081205,4329
20081208,4378
20081209,4702
20081210,5228
20081211,5207
20081212,5128
20081215,5232
20081216,5050
20081217,5154
20081218,5120
20081219,5270
20081222,5236
20081224,5100
20081225,5101
20081226,5180
20081229,5147
20081230,5212
20090105,5295
20090106,5300
20090107,5407
20090108,5218
20090109,5222
20090113,4951
20090114,4865
20090115,4881
20090116,4842
20090119,4873
20090120,4800
20090121,4887
20090122,5193
20090123,5315
20090126,5168
20090127,5348
20090128,5353
20090129,5412
20090130,5352
20090202,5170
20090203,5190
20090204,5142
20090205,5271
20090206,5250
20090209,5157
20090210,5186
20090212,5179
20090213,5228
20090216,5088
20090217,5130
20090218,4854
20090219,4541
20090220,4610
20090223,4478
20090224,4633
20090225,4464
20090226,4674
20090227,4813
20090302,4819
20090303,4769
20090304,4787
20090305,4863
20090306,4739
20090309,4635
20090310,4738
20090311,4763
20090312,4864
20090313,4934
20090316,4939
20090317,5124
20090318,5254
20090319,5176
20090323,5094
20090324,5198
20090325,5148
20090326,5248
20090327,5698
20090330,5488
20090331,5344
20090401,5325
20090402,5404
20090403,5322
20090406,5346
20090407,5568
20090408,5632
20090409,5636
20090410,5492
20090413,5489
20090414,5529
20090415,5446
20090416,5287
20090417,5359
20090420,5358
20090421,5299
20090422,5301
20090423,5441
20090424,5368
20090427,5308
20090428,5195
20090430,5397
20090501,5476
20090507,5649
20090508,5598
20090511,5693
20090512,5558
20090513,5484
20090514,5354
20090515,5467
20090518,5290
20090519,5375
20090520,5438
20090521,5360
20090522,5348
20090525,5420
20090526,5536
20090527,5659
20090528,5654
20090529,5764
20090601,5752
20090602,5790
20090603,5807
20090604,5852
20090605,5901
20090608,5944
20090609,5910
20090610,5933
20090611,5847
20090612,5880
20090615,5907
20090616,5743
20090617,5880
20090618,5884
20090619,5912
20090622,6054
20090623,5988
20090624,6007
20090625,6113
20090626,6372
20090629,6418
20090630,6411
20090701,6580
20090702,6635
20090703,6613
20090706,6624
20090707,6386
20090708,6458
20090709,6317
20090710,6443
20090713,6306
20090714,6434
20090715,6485
20090716,6494
20090717,6652
20090721,6669
20090722,6664
20090723,6647
20090724,6619
20090727,6638
20090728,6613
20090729,6582
20090730,6552
20090731,6679
20090803,6822
20090804,6884
20090805,6749
20090806,6782
20090807,6819
20090810,6861
20090811,6881
20090812,6989
20090813,6952
20090814,7119
20090817,6830
20090818,6780
20090819,6840
20090820,6957
20090821,6993
20090824,7067
20090825,7068
20090826,7088
20090827,7089
20090828,7161
20090831,7206
20090901,7220
20090902,7165
20090903,7142
20090904,7146
20090907,7095
20090908,7044
20090909,7158
20090910,7231
20090911,7293
20090914,7366
20090915,7450
20090916,7256
20090917,7241
20090918,7204
20090924,7240
20090925,7249
20090928,7227
20090929,7211
20090930,7326
20091001,7250
20091002,7165
20091005,7001
20091006,7186
20091007,7253
20091008,7212
20091009,7254
20091013,7308
20091014,7203
20091015,7257
20091016,7090
20091019,7128
20091020,7210
20091021,7137
20091022,6991
20091023,7018
20091026,6980
20091027,6999
20091028,6929
20091029,6770
20091030,7087
20091102,7255
20091104,7316
20091105,7104
20091106,7027
20091109,7077
20091110,7055
20091111,7073
20091112,6979
20091113,6939
20091116,6818
20091117,6775
20091118,6669
20091119,6352
20091120,6548
20091124,6541
20091125,6486
20091126,6536
20091127,6375
20091130,6540
20091201,6858
20091202,6832
20091203,6878
20091204,6977
20091207,7099
20091208,6843
20091209,6817
20091210,6796
20091211,6833
20091214,6823
20091215,6936
20091216,6801
20091217,6887
20091218,6819
20091221,6813
20091222,6846
20091224,6928
20091225,7014
20091228,7145
20091229,7255
20091230,7279
20100104,7393
20100105,7429
20100106,7381
20100107,7331
20100108,7329
20100112,7441
20100113,7578
20100114,7663
20100115,7706
20100118,7654
20100119,7715
20100120,7798
20100121,7815
20100122,7841
20100125,7847
20100126,7799
20100127,7684
20100128,7705
20100129,7767
20100201,7811
20100202,7914
20100203,7968
20100204,7989
20100205,7907
20100208,7812
20100209,7673
20100210,7832
20100212,7838
20100215,7793
20100216,7746
20100217,7996
20100218,7928
20100219,7966
20100222,8072
20100223,8129
20100224,8025
20100225,8047
20100226,8157
20100301,8300
20100302,8314
20100303,8381
20100304,8268
20100305,8325
20100308,8308
20100309,8483
20100310,8581
20100311,8668
20100312,8839
20100315,8971
20100316,9012
20100317,9118
20100318,9139
20100319,9148
20100323,9174
20100324,9120
20100325,9250
20100326,9410
20100329,9574
20100330,9776
20100331,9889
20100401,10015
20100402,10176
20100405,10263
20100406,10360
20100407,10502
20100408,10605
20100409,10683
20100412,10906
20100413,11019
20100414,11194
20100415,11470
20100416,11896
20100419,12007
20100420,12277
20100421,12419
20100422,12681
20100423,12720
20100426,13111
20100427,13106
20100428,13050
20100430,13500
20100506,13310
20100507,13336
20100510,13557
20100511,13388
20100512,13074
20100513,13506
20100514,13881
20100517,13629
20100518,13175
20100519,13276
20100520,13318
20100521,13297
20100524,13309
20100525,13081
20100526,13197
20100527,13288
20100528,13669
20100531,13797
20100601,14049
20100602,14119
20100603,14177
20100604,14086
20100607,13776
20100608,13822
20100609,13749
20100610,14003
20100611,14500
20100614,14593
20100615,14600
20100616,14747
20100617,14880
20100618,15053
20100621,15890
20100622,16656
20100623,17385
20100624,18432
20100625,18994
20100628,19540
20100629,20289
20100630,20997
20100701,22249
20100702,23089
20100705,23878
20100706,24287
20100707,25237
20100708,25668
20100709,26549
20100712,27208
20100713,28424
20100714,30192
20100715,31543
20100716,32999
20100720,34115
20100721,35950
20100722,37571
20100723,39754
20100726,43348
20100727,52300
20100728,52414
20100729,52431
20100730,51978
20100802,52953
20100803,52021
20100804,51399
20100805,51748
20100806,51935
20100809,51704
20100810,51275
20100811,50837
20100812,50789
20100813,50778
20100816,49928
20100817,50078
20100818,50211
20100819,50522
20100820,50182
20100823,50061
20100824,50115
20100825,50184
20100826,50012
20100827,50393
20100830,50885
20100831,50994
20100901,51716
20100902,52186
20100903,51257
20100906,51343
20100907,51169
20100908,50719
20100909,50525
20100910,50535
20100913,50588
20100914,50727
20100915,50874
20100916,49666
20100917,50067
20100921,50426
20100922,50589
20100924,50693
20100927,50648
20100928,50831
20100929,51516
20100930,51501
20101001,52065
20101004,51939
20101005,53034
20101006,53340
20101007,52438
20101008,51708
20101012,51208
20101013,51622
20101014,52129
20101015,51344
20101018,50026
20101019,50011
20101020,50226
20101021,50395
20101022,50193
20101025,49926
20101026,50599
20101027,51549
20101028,50316
20101029,51171
20101101,52391
20101102,51730
20101104,51693
20101105,52105
20101108,52095
20101109,51909
20101110,51809
20101111,51494
20101112,51944
20101115,52151
20101116,51835
20101117,51687
20101118,52267
20101119,51597
20101122,51827
20101124,52057
20101125,52601
20101126,52487
20101129,52726
20101130,52760
20101201,53850